Location: Chruszcz�w
(50.3333°N, 18.9000°E)
Time: 12:55:16
(UTC+00:00)

Daily predictions for brighter satellites

Satellite Brightness Start Highest point End
(mag) Time Altitude Azimuth Time Altitude Azimuth Time Altitude Azimuth
Cosmos 2154 Rocket 4.1 15:11:20 10° N 15:17:44 88° E 15:24:05 10° S
Cosmos 1606 3.2 15:15:59 10° SSE 15:19:39 41° E 15:23:20 10° NNE
Landsat 5 4.2 15:18:15 10° NNE 15:22:28 40° E 15:26:43 10° SSE
SMAP 3.4 15:24:13 10° SE 15:28:38 44° ENE 15:33:04 10° N
Sich 1 3.0 15:25:25 10° N 15:29:49 75° E 15:34:08 10° SSE
Cosmos 482 Debris 3.5 15:29:18 10° W 15:31:04 42° SSW 15:32:49 10° SE
YAOGAN 1 4.4 15:32:58 10° ENE 15:34:09 11° NE 15:35:20 10° NE
Cosmos 1470 Rocket 4.4 15:30:35 10° N 15:34:21 28° ENE 15:38:05 10° SE
SL-8 Rocket 4.1 15:29:48 10° N 15:35:56 55° ENE 15:42:05 10° SSE
Cosmos 1151 Rocket 3.8 15:32:34 10° SSE 15:36:19 31° E 15:40:05 10° NNE
CZ-4C R/B 3.3 15:32:53 10° NNE 15:36:29 53° E 15:40:01 10° S
Cosmos 2341 Rocket 4.0 15:30:59 10° N 15:37:18 71° E 15:43:37 10° SSE
Radarsat Rocket 4.2 15:33:16 10° SSE 15:39:29 80° ENE 15:46:35 10° NNW
CZ-2C R/B 4.3 15:39:06 10° E 15:42:13 17° ENE 15:45:17 10° NNE
CZ-4B DEB 4.4 15:36:57 10° SSE 15:42:26 82° WSW 15:47:56 10° NNW
USA 281 4.0 15:38:38 10° E 15:44:05 29° NE 15:49:34 10° NNW
Cosmos 2360 Rocket 4.3 15:41:26 10° WNW 15:44:53 16° NNW 15:48:19 10° N
Cosmos 2333 Rocket 3.9 15:40:42 10° W 15:45:25 26° NW 15:50:10 10° NNE
Cosmos 2285 Rocket 4.0 15:41:10 10° NNW 15:47:36 82° ENE 15:53:58 10° SSE
Cosmos 2219 Rocket 3.8 15:42:58 10° W 15:47:43 27° NW 15:52:28 10° NNE
COSMO-SKYMED 1 4.1 15:45:53 12° ENE 15:48:02 16° E 15:50:48 10° SE
USA 81 4.2 15:44:29 10° N 15:49:41 53° E 15:54:51 10° SSE
TELKOM 3 3.1 15:47:44 10° W 15:50:38 83° S 15:52:24 17° E
COSMOS 2428 4.3 15:47:39 10° WSW 15:52:35 29° NW 15:57:32 10° NNE
CORIOLIS 4.2 15:47:37 10° SSE 15:52:59 66° ENE 15:58:24 10° N
USA 267 3.5 15:46:49 10° E 15:53:06 53° N 15:59:26 10° WNW
X-37B 2.7 15:52:41 10° SSW 15:54:57 18° SSE 15:57:12 10° ESE
PAYLOAD B 4.5 15:49:51 10° SSE 15:55:26 78° WSW 16:01:02 10° NNW
H-2A R/B 3.4 15:54:40 11° E 15:57:35 18° NE 16:00:52 10° NNE
Helios 1A Rocket 4.3 15:57:11 16° E 15:58:19 17° ENE 16:00:59 10° NNE
Meteor 1-4 Rocket 3.2 15:57:36 10° SSE 16:00:49 32° E 16:03:14 15° NE
Meteor 1-20 Rocket 4.3 15:55:52 10° NNW 16:01:46 85° ENE 16:07:35 10° SSE
Cosmos 44 Rocket 3.9 15:56:58 10° NNW 16:01:48 39° NE 16:06:21 12° ESE
Cosmos 1328 Rocket 3.7 15:59:46 10° S 16:03:56 51° E 16:08:11 10° NNE
Cosmos 2181 Rocket 4.0 15:57:51 10° S 16:04:11 66° E 16:10:27 10° NNE
Cosmos 1939 Rocket 3.4 16:00:49 10° SE 16:04:21 34° ENE 16:07:56 10° N
Cosmos 1933 Rocket 4.0 16:00:19 10° N 16:04:31 38° ENE 16:08:42 10° SE
Cosmos 1666 Rocket 3.8 16:01:13 10° NNW 16:05:40 75° W 16:10:05 10° S
CZ-4 R/B 2.6 16:05:25 18° E 16:06:38 21° ENE 16:09:41 10° NNE
Cosmos 389 Rocket 3.3 16:03:40 10° SSW 16:07:00 50° WNW 16:10:21 10° N
Cosmos 2237 Rocket 3.2 16:02:10 10° WSW 16:07:32 44° NW 16:12:57 10° NNE
NOAA 11 4.1 16:03:21 10° SSE 16:08:43 68° ENE 16:14:09 10° N
Cosmos 1602 3.7 16:05:17 10° N 16:09:11 59° ENE 16:13:01 10° SSE
CZ-4B R/B 3.2 16:04:35 10° SSE 16:09:54 81° WSW 16:15:14 10° NNW
Meteor 1-26 Rocket 4.4 16:06:16 10° S 16:12:11 59° E 16:18:03 10° NNE
H-2A R/B 3.6 16:08:47 10° S 16:12:51 47° W 16:16:48 10° NNW
Cosmos 2369 Rocket 2.1 16:09:32 10° NNW 16:15:15 73° ENE 16:20:55 10° SE
Cosmos 1943 4.1 16:11:05 10° SSE 16:15:47 28° ESE 16:18:07 21° ENE
ADEOS Rocket 4.0 16:08:09 10° N 16:15:49 67° WNW 16:23:27 10° SSW
Cosmos 1943 Rocket 2.4 16:11:15 10° NNW 16:16:49 74° WSW 16:22:23 10° SSE
Meteor 1-14 Rocket 4.3 16:11:08 10° N 16:17:05 64° ENE 16:23:02 10° SSE
Cosmos 1538 Rocket 4.3 16:14:12 10° S 16:19:20 48° ESE 16:23:21 16° NE
NOAA 12 4.4 16:14:16 10° S 16:19:35 72° WSW 16:24:55 10° NNW
H-2A R/B 2.1 16:16:11 10° NNE 16:20:24 77° WNW 16:24:41 10° SSW
CENTAUR R/B 4.0 16:17:08 10° SE 16:20:31 16° ESE 16:20:31 16° ESE
CZ-2D R/B 3.8 16:18:15 10° SE 16:21:46 36° ENE 16:25:19 10° N
SL-08 R/B 4.4 16:19:45 10° N 16:25:53 64° ENE 16:31:56 10° SSE
Okean O Rocket 2.1 16:22:05 10° S 16:26:23 62° WSW 16:30:46 10° NNW
ARGOS 4.2 16:27:01 23° ENE 16:27:07 23° ENE 16:31:17 10° N
Cosmos 1782 2.7 16:23:51 10° S 16:27:46 64° E 16:31:08 14° NNE
Okean-O 3.2 16:23:58 10° SE 16:27:58 34° ENE 16:31:58 10° N
Cosmos 2056 Rocket 4.4 16:23:34 10° N 16:28:05 27° NE 16:29:05 26° ENE
Cosmos 1633 Rocket 3.9 16:25:35 10° NNW 16:29:51 52° W 16:34:04 10° S
DEBRIS 4.5 16:13:50 10° W 16:31:03 83° S 16:34:04 24° ESE
ISS -3.8 16:28:42 10° WNW 16:32:05 72° N 16:32:58 45° ENE
Cosmos 1933 4.0 16:29:32 10° SSW 16:33:31 55° WNW 16:37:33 10° N
Cosmos 2218 Rocket 4.3 16:30:08 10° NNW 16:36:16 71° W 16:42:23 10° S
SKYMED 2 3.8 16:34:31 26° NE 16:36:30 44° E 16:40:40 10° S
Cosmos 2366 rocket 4.2 16:31:04 10° NNW 16:37:14 72° W 16:43:20 10° S
ERS-2 2.1 16:36:10 33° NE 16:37:32 56° ESE 16:41:09 10° S
Cosmos 1869 Rocket 4.1 16:35:03 10° N 16:39:15 37° ENE 16:40:22 32° ESE
Cosmos 1867 4.4 16:35:52 10° WSW 16:41:06 46° NW 16:44:54 18° NNE
Cosmos 489 Rocket 4.4 16:38:16 10° SSW 16:44:28 80° ESE 16:49:47 15° NNE
Cosmos 371 Rocket 3.7 16:44:27 10° NNW 16:49:05 39° ENE 16:49:18 39° ENE
Lacrosse 5 rocket 1.5 16:46:02 10° WSW 16:49:34 50° NNW 16:50:15 43° NNE
Cosmos 773 Rocket 4.4 16:45:01 10° SW 16:50:16 64° WNW 16:54:45 15° NNE
SL-23 DEB 4.5 16:47:06 10° SW 16:50:52 57° SSE 16:52:39 38° E
NOSS 3-2 (A) 3.9 16:47:39 10° S 16:52:50 38° ESE 16:54:01 35° E
Feng Yun 1-1 Rocket 4.5 16:51:11 10° S 16:56:54 74° WSW 17:02:30 10° NNW
CZ-4B R/B 1.6 16:56:26 48° NNW 16:57:04 62° WNW 17:00:11 10° SSW
Cosmos 2239 Rocket 4.4 16:52:10 10° N 16:58:19 66° ENE 17:04:29 10° SSE
SL-16 R/B 3.1 16:55:14 10° SW 17:00:39 45° NW 17:05:04 15° NNE
USA 215 3.8 16:59:21 33° E 17:01:13 40° SE 17:07:18 10° SSW
EO 1 Delta rocket 4.5 16:58:11 10° NNE 17:03:53 83° E 17:11:11 10° S
BREEZE-M DEB (TANK) 4.0 17:02:29 10° WSW 17:03:26 22° SW 17:03:26 22° SW
Cosmos 1500 3.3 17:01:41 10° NNW 17:05:31 74° W 17:09:19 10° S
YAOGAN 1 2.4 17:09:18 69° E 17:09:27 70° ENE 17:13:47 10° N
Cosmos 1656 Rocket 3.7 17:05:05 10° NNW 17:10:46 79° WSW 17:16:19 10° SSE
SL-24 DEB 4.3 17:06:12 10° N 17:10:58 78° W 17:15:38 10° SSW
USA 238 DEB 3.9 17:05:47 10° SSW 17:12:01 47° ESE 17:13:06 43° E
USA 238 3.9 17:05:53 10° SSW 17:12:07 47° ESE 17:13:10 43° E
MOS 1 Rocket 3.6 17:13:26 53° ENE 17:14:06 57° E 17:19:24 10° S
NOAA 15 4.5 17:13:17 10° SSE 17:18:35 86° ENE 17:23:54 10° NNW
STPSAT 2 (USA 217) 4.4 17:15:00 10° SSW 17:19:32 87° ESE 17:19:43 82° NE
Cosmos 158 Rocket 3.8 17:16:21 10° SSW 17:20:55 65° SE 17:20:55 65° SE
Cosmos 1934 Rocket 3.9 17:14:54 10° N 17:21:16 69° ENE 17:27:33 10° SSE
CZ-2C R/B 2.9 17:16:35 10° SSE 17:21:33 81° WSW 17:26:23 10° NNW
SWAS 4.5 17:19:58 10° SW 17:24:10 76° WNW 17:24:10 76° WNW
Cosmos 1238 Rocket 3.1 17:20:36 10° NNW 17:24:31 74° W 17:29:16 10° S
Cosmos 923 Rocket 3.8 17:19:26 10° SSW 17:24:37 74° ESE 17:24:50 73° E
COSMO-SKYMED 1 2.9 17:23:06 38° N 17:24:38 64° WNW 17:28:55 10° SSW
USA 281 3.2 17:21:26 10° SSE 17:28:01 84° WSW 17:34:39 10° NNW
CSL-04 Debris 4.0 17:27:30 49° SE 17:29:00 76° ENE 17:34:31 10° NNW
Nadezhda 3 Rocket 4.0 17:24:39 10° S 17:31:02 83° W 17:37:27 10° N
X-37B 3.1 17:28:12 10° WSW 17:29:28 19° SW 17:29:28 19° SW
Helios 1A Rocket 3.4 17:33:25 56° WNW 17:33:25 56° WNW 17:37:04 10° NNW
Meteor 2-6 Rocket 4.3 17:28:36 10° SSW 17:34:09 73° WNW 17:37:14 27° N
Cosmos 2228 Rocket 3.3 17:29:43 10° SSW 17:34:13 69° WNW 17:34:29 67° NW
USA 267 3.1 17:34:10 54° ESE 17:35:51 87° NNE 17:42:27 10° WNW
H-2A R/B 1.9 17:35:18 57° SSE 17:36:23 89° WSW 17:41:32 10° NNW
Cosmos 1821 Rocket 4.5 17:30:58 10° NNW 17:37:05 60° W 17:43:16 10° S
Cosmos 1812 4.2 17:34:17 10° SSW 17:36:35 33° SW 17:36:35 33° SW
Meteor 1-11 Rocket 3.8 17:34:35 10° NNW 17:40:23 79° W 17:46:16 10° S
CZ-4 R/B 2.3 17:41:26 47° W 17:41:26 47° W 17:45:19 10° NNW
Cosmos 44 Rocket 4.2 17:38:31 10° NW 17:43:31 50° WSW 17:45:09 37° S
CSL-04 Rocket 3.5 17:44:05 82° NNW 17:44:05 82° NNW 17:49:10 10° NNW
Cosmos 1980 Rocket 4.4 17:44:22 10° N 17:45:17 12° N 17:45:17 12° N
Cosmos 1680 Rocket 3.9 17:46:13 10° SSW 17:50:18 55° SSW 17:50:18 55° SSW
Cosmos 1603 4.2 17:50:35 10° SW 17:56:06 56° NW 17:56:56 51° NNW
Cosmos 1943 3.6 17:53:52 10° SW 17:59:28 60° NW 17:59:58 57° NNW
Okean-O 4.3 18:00:31 10° SSW 18:04:27 31° W 18:08:25 10° NNW
ARGOS 3.9 18:08:32 45° NW 18:08:32 45° NW 18:12:20 10° NNW
ISS -0.3 18:05:34 10° WNW 18:05:55 12° W 18:05:55 12° W
CENTAUR R/B 3.1 18:03:44 10° SSW 18:07:44 46° SSW 18:07:44 46° SSW
Cosmos 2056 Rocket 4.3 18:05:22 10° NNW 18:09:29 48° WNW 18:09:29 48° WNW
NOSS 3-2 (C) 4.4 18:12:05 10° SW 18:15:09 35° SSW 18:15:09 35° SSW
NOSS 3-2 (A) 4.5 18:37:37 10° WSW 18:41:27 40° W 18:41:27 40° W
USA 215 4.0 18:46:43 48° WSW 18:46:43 48° WSW 18:51:12 10° WSW
